Weather History for KMNM - January, 2014

Change the Weather History Date:

Wednesday, January 15, 2014

  Actual Average (WUND) Record (WUND)
Temperature  
Mean Temperature 14 °F -  
Max Temperature 17 °F - - (-1)
Min Temperature 10 °F - - (-1)
Degree Days  
Heating Degree Days 52    
Moisture  
Dew Point 7 °F    
Average Humidity 73    
Maximum Humidity 92    
Minimum Humidity 53    
Precipitation  
Precipitation 0.00 in - - ()
Sea Level Pressure  
Sea Level Pressure 29.85 in    
Wind  
Wind Speed 11 mph (WNW)    
Max Wind Speed 18 mph    
Max Gust Speed 26 mph    
Visibility 10 miles    
Events      
Averages and records for this station are not official NWS values.
T = Trace of Precipitation, MM = Missing Value Source: NWS Daily Summary

Daily Weather History Graph

Daily Weather History Graph

Search for Another Location

Airport or City:

Trip Planner

Search our weather history database for the weather conditions in past years. The results will help you decide how hot, cold, wet, or windy it might be!

Date:

Astronomy

Jan. 15, 2014 Rise Set
Actual Time 7:25 AM CST 4:34 PM CST
Civil Twilight 6:52 AM CST 5:07 PM CST
Nautical Twilight 6:16 AM CST 5:44 PM CST
Astronomical Twilight 5:41 AM CST 6:19 PM CST
Moon 4:35 PM CST (1/15) 6:39 AM CST (1/15)
Length of Visible Light 10h 14m
Length of Day
9h 09m
Full, 100% of the Moon is Illuminated
Jan 15
Full
Jan 15
Full
Jan 23
Last Quarter
Jan 30
New
Feb 6
First Quarter

Hourly Weather History & Observations

Time (CST) Temp. Windchill Dew Point Humidity Pressure Visibility Wind Dir Wind Speed Gust Speed Precip Events Conditions
12:15 AM 15.8 °F 0.3 °F 8.6 °F 73% 29.80 in 3.0 mi North 16.1 mph 21.9 mph N/A   Overcast
12:35 AM 15.8 °F 1.4 °F 6.8 °F 68% 29.81 in 5.0 mi NNW 13.8 mph 25.3 mph N/A   Overcast
12:55 AM 15.8 °F 0.3 °F 6.8 °F 68% 29.81 in 7.0 mi NNW 16.1 mph 23.0 mph N/A   Overcast
1:15 AM 15.8 °F 1.4 °F 3.2 °F 58% 29.81 in 10.0 mi North 13.8 mph 25.3 mph N/A   Overcast
1:35 AM 15.8 °F -0.2 °F 6.8 °F 68% 29.82 in 10.0 mi NNW 17.3 mph 25.3 mph N/A   Overcast
1:55 AM 15.8 °F 0.9 °F 6.8 °F 68% 29.83 in 10.0 mi NNW 15.0 mph 25.3 mph N/A   Overcast
2:15 AM 15.8 °F 2.1 °F 6.8 °F 68% 29.84 in 10.0 mi NNW 12.7 mph 19.6 mph N/A   Scattered Clouds
2:35 AM 15.8 °F 1.4 °F 8.6 °F 73% 29.85 in 10.0 mi NNW 13.8 mph 20.7 mph N/A   Mostly Cloudy
2:55 AM 14.0 °F -1.4 °F 10.4 °F 86% 29.86 in 10.0 mi NNW 15.0 mph 20.7 mph N/A   Mostly Cloudy
3:15 AM 14.0 °F 0.5 °F 8.6 °F 79% 29.86 in 10.0 mi NNW 11.5 mph 18.4 mph N/A   Mostly Cloudy
3:35 AM 14.0 °F 2.0 °F 6.8 °F 73% 29.87 in 10.0 mi NNW 9.2 mph 23.0 mph N/A   Overcast
3:55 AM 14.0 °F 2.9 °F 3.2 °F 62% 29.88 in 10.0 mi NNW 8.1 mph 17.3 mph N/A   Overcast
4:15 AM 14.0 °F 2.0 °F 5.0 °F 67% 29.88 in 10.0 mi NNW 9.2 mph 18.4 mph N/A   Overcast
4:35 AM 14.0 °F -0.2 °F 5.0 °F 67% 29.89 in 10.0 mi NNW 12.7 mph 18.4 mph N/A   Overcast
4:55 AM 12.2 °F 4.3 °F 6.8 °F 79% 29.90 in 10.0 mi NNW 4.6 mph - N/A   Overcast
5:15 AM 12.2 °F 4.3 °F 10.4 °F 92% 29.91 in 10.0 mi NW 4.6 mph - N/A   Overcast
5:35 AM 14.0 °F 2.0 °F 10.4 °F 86% 29.91 in 10.0 mi NNW 9.2 mph 17.3 mph N/A   Overcast
5:55 AM 14.0 °F 3.9 °F 8.6 °F 79% 29.92 in 10.0 mi NNW 6.9 mph - N/A   Overcast
6:15 AM 14.0 °F 5.1 °F 6.8 °F 73% 29.93 in 10.0 mi NNW 5.8 mph - N/A   Overcast
6:35 AM 14.0 °F 8.2 °F 6.8 °F 73% 29.93 in 10.0 mi North 3.5 mph - N/A   Overcast
6:55 AM 14.0 °F 8.2 °F 6.8 °F 73% 29.94 in 10.0 mi North 3.5 mph - N/A   Overcast
7:15 AM 14.0 °F 8.2 °F 6.8 °F 73% 29.94 in 10.0 mi NNW 3.5 mph - N/A   Overcast
7:35 AM 14.0 °F 8.2 °F 6.8 °F 73% 29.95 in 10.0 mi NNW 3.5 mph - N/A   Overcast
7:55 AM 14.0 °F 8.2 °F 8.6 °F 79% 29.96 in 10.0 mi NNW 3.5 mph - N/A   Overcast
8:15 AM 14.0 °F 8.2 °F 10.4 °F 86% 29.96 in 10.0 mi NNW 3.5 mph - N/A   Overcast
8:35 AM 14.0 °F 8.2 °F 10.4 °F 86% 29.97 in 10.0 mi NW 3.5 mph - N/A   Overcast
8:55 AM 14.0 °F - 10.4 °F 86% 29.96 in 10.0 mi Calm Calm - N/A   Overcast
9:15 AM 15.8 °F 7.2 °F 10.4 °F 79% 29.96 in 10.0 mi NW 5.8 mph - N/A   Overcast
9:35 AM 15.8 °F 8.6 °F 6.8 °F 68% 29.96 in 10.0 mi NW 4.6 mph - N/A   Overcast
9:55 AM 15.8 °F 6.1 °F 3.2 °F 58% 29.96 in 10.0 mi NNW 6.9 mph - N/A   Overcast
10:15 AM 15.8 °F 5.1 °F 1.4 °F 53% 29.97 in 10.0 mi NNW 8.1 mph - N/A   Overcast
10:35 AM 15.8 °F 3.4 °F 3.2 °F 58% 29.97 in 10.0 mi NNW 10.4 mph - N/A   Overcast
10:55 AM 15.8 °F 3.4 °F 6.8 °F 68% 29.96 in 10.0 mi NNW 10.4 mph - N/A   Overcast
11:15 AM 15.8 °F 7.2 °F 8.6 °F 73% 29.95 in 10.0 mi NW 5.8 mph - N/A   Overcast
11:35 AM 15.8 °F 4.2 °F 8.6 °F 73% 29.93 in 10.0 mi NNW 9.2 mph - N/A   Overcast
11:55 AM 15.8 °F 5.1 °F 8.6 °F 73% 29.93 in 10.0 mi NW 8.1 mph - N/A   Overcast
12:15 PM 15.8 °F 6.1 °F 8.6 °F 73% 29.93 in 10.0 mi NW 6.9 mph - N/A   Overcast
12:35 PM 15.8 °F 6.1 °F 6.8 °F 68% 29.93 in 10.0 mi West 6.9 mph - N/A   Overcast
12:55 PM 17.6 °F 7.3 °F 5.0 °F 58% 29.92 in 10.0 mi West 8.1 mph - N/A   Overcast
1:15 PM 17.6 °F 10.7 °F 5.0 °F 58% 29.90 in 10.0 mi NW 4.6 mph - N/A   Overcast
1:35 PM 17.6 °F 5.0 °F 5.0 °F 58% 29.89 in 10.0 mi WSW 11.5 mph - N/A   Overcast
1:55 PM 17.6 °F 9.3 °F 5.0 °F 58% 29.88 in 10.0 mi WNW 5.8 mph - N/A   Overcast
2:15 PM 17.6 °F 10.7 °F 3.2 °F 53% 29.88 in 10.0 mi WSW 4.6 mph - N/A   Overcast
2:35 PM 17.6 °F 10.7 °F 3.2 °F 53% 29.88 in 10.0 mi West 4.6 mph - N/A   Overcast
2:55 PM 17.6 °F 6.4 °F 5.0 °F 58% 29.88 in 10.0 mi SW 9.2 mph - N/A   Overcast
3:15 PM 17.6 °F 8.2 °F 8.6 °F 68% 29.87 in 10.0 mi SW 6.9 mph - N/A   Overcast
3:35 PM 17.6 °F 7.3 °F 12.2 °F 79% 29.87 in 10.0 mi SSW 8.1 mph - N/A   Overcast
3:55 PM 17.6 °F 8.2 °F 10.4 °F 73% 29.86 in 10.0 mi SSW 6.9 mph - N/A   Overcast
4:15 PM 17.6 °F 5.0 °F 6.8 °F 63% 29.85 in 10.0 mi SW 11.5 mph - N/A   Overcast
4:35 PM 17.6 °F 4.3 °F 5.0 °F 58% 29.85 in 10.0 mi WSW 12.7 mph 19.6 mph N/A   Overcast
4:55 PM 15.8 °F 1.4 °F 6.8 °F 68% 29.86 in 10.0 mi SW 13.8 mph - N/A   Overcast
5:15 PM 15.8 °F 3.4 °F 8.6 °F 73% 29.87 in 10.0 mi WSW 10.4 mph 19.6 mph N/A   Overcast
5:35 PM 14.0 °F -0.8 °F 6.8 °F 73% 29.84 in 10.0 mi SW 13.8 mph - N/A   Mostly Cloudy
5:55 PM 14.0 °F -0.2 °F 8.6 °F 79% 29.84 in 10.0 mi SW 12.7 mph - N/A   Clear
6:15 PM 12.2 °F -3.1 °F 6.8 °F 79% 29.83 in 10.0 mi SW 13.8 mph - N/A   Clear
6:35 PM 12.2 °F -1.8 °F 8.6 °F 85% 29.82 in 10.0 mi SW 11.5 mph 20.7 mph N/A   Clear
6:55 PM 12.2 °F -2.5 °F 8.6 °F 85% 29.80 in 10.0 mi SW 12.7 mph - N/A   Mostly Cloudy
7:15 PM 12.2 °F -2.5 °F 6.8 °F 79% 29.80 in 10.0 mi SW 12.7 mph - N/A   Mostly Cloudy
7:35 PM 10.4 °F -3.3 °F 6.8 °F 85% 29.79 in 10.0 mi SW 10.4 mph - N/A   Mostly Cloudy
7:55 PM 10.4 °F -4.8 °F 8.6 °F 92% 29.78 in 10.0 mi SW 12.7 mph - N/A   Mostly Cloudy
8:15 PM 10.4 °F -6.0 °F 6.8 °F 85% 29.76 in 10.0 mi SW 15.0 mph 19.6 mph N/A   Overcast
8:35 PM 10.4 °F -4.8 °F 3.2 °F 73% 29.75 in 10.0 mi SW 12.7 mph - N/A   Overcast
8:55 PM 10.4 °F -6.0 °F 6.8 °F 85% 29.73 in 10.0 mi SW 15.0 mph 19.6 mph N/A   Overcast
9:15 PM 10.4 °F -5.4 °F 5.0 °F 79% 29.72 in 10.0 mi SSW 13.8 mph 18.4 mph N/A   Overcast
9:35 PM 12.2 °F -1.8 °F 6.8 °F 79% 29.71 in 10.0 mi SW 11.5 mph - N/A   Overcast
9:55 PM 12.2 °F -3.7 °F 6.8 °F 79% 29.68 in 10.0 mi SSW 15.0 mph 24.2 mph N/A   Overcast
10:15 PM 12.2 °F -5.3 °F 6.8 °F 79% 29.67 in 10.0 mi SW 18.4 mph 23.0 mph N/A   Overcast
10:35 PM 12.2 °F -5.3 °F 10.4 °F 92% 29.66 in 10.0 mi SSW 18.4 mph 26.5 mph N/A   Overcast
10:55 PM 12.2 °F -3.7 °F 10.4 °F 92% 29.66 in 7.0 mi SW 15.0 mph 23.0 mph N/A   Overcast
11:15 PM 12.2 °F -3.7 °F 8.6 °F 85% 29.65 in 7.0 mi SSW 15.0 mph - N/A   Overcast
11:35 PM 12.2 °F -5.3 °F 6.8 °F 79% 29.62 in 7.0 mi SW 18.4 mph - N/A   Overcast
11:55 PM 12.2 °F -1.8 °F 8.6 °F 85% 29.61 in 1.8 mi SW 11.5 mph 20.7 mph N/A   Overcast